Regional Weather Roundup
Issued by NWS Goodland, KS

Home | Current Version | Previous Version | Graphics & Text | Print | Product List | Glossary On
Versions: 1 2 3 4 5 6 7 8 9 10 11 12 13 14 15 16 17 18 19 20 21 22 23 24 25 26 27 28 29 30 31 32 33 34 35 36 37 38 39 40 41 42 43 44 45 46 47 48 49 50
950
ASUS43 KGLD 291559
RWRGLD

GOODLAND FORECAST AREA HOURLY WEATHER ROUNDUP
NATIONAL WEATHER SERVICE GOODLAND KS
1000 AM MDT WED MAR 29 2017

...OFFICIAL OBSERVATIONS...

CITY           SKY/WX    TMP DP  RH WIND       PRES   REMARKS
GOODLAND KS    CLOUDY    41  39  93 N24G35    29.98S
HILL CITY KS   LGT RAIN  45  44  97 N21G29    29.91S FOG
IMPERIAL NEB   CLOUDY    42  39  89 N16G23    30.05F FOG
MCCOOK NEB     LGT RAIN  43  42  97 N21       30.00R FOG
AKRON CO       CLOUDY    37  35  92 N16       30.09R
BURLINGTON CO  CLOUDY    39  38  96 N23G33    30.00S
LIMON CO       FLURRIES  35  35 100 N20       30.06S
$$

...UNOFFICIAL OBSERVATIONS...

CITY           SKY/WX    TMP DP  RH WIND       PRES   REMARKS
NORTON KS      LGT RAIN  43  37  81 N18       29.94R
SHARON SPRINGS   N/A     40  39  96 NW20G32     N/A
TRENTON NEB      N/A     42  32  68 N12         N/A
KIT CARSON CO    N/A     38  35  90 MISG        N/A
YUMA CO        CLOUDY    37  36  93 N15G21    30.07F
$$




USA.gov is the U.S. government's official web portal to all federal, state and local government web resources and services.